timestamp,waterbody_station,lease,latitude,longitude,deployment_start_date,deployment_end_date,sensor,depth,mooring,Temperature_degrees Celsius,Dissolved Oxygen_percent saturation,Dissolved Oxygen_mg/L
2017-11-08T00:00:00,Sober Island Pond-Sober Island,1323.0,44.845186,-62.4662922,2017-06-24,2017-12-12,HOBO-10817399,1.0,float,12.292,,
2017-11-08T00:15:00,Sober Island Pond-Sober Island,1323.0,44.845186,-62.4662922,2017-06-24,2017-12-12,HOBO-10817399,1.0,float,12.316,,
2017-11-08T00:30:00,Sober Island Pond-Sober Island,1323.0,44.845186,-62.4662922,2017-06-24,2017-12-12,HOBO-10817399,1.0,float,12.268,,
2017-11-08T00:45:00,Sober Island Pond-Sober Island,1323.0,44.845186,-62.4662922,2017-06-24,2017-12-12,HOBO-10817399,1.0,float,12.268,,
2017-11-08T01:00:00,Sober Island Pond-Sober Island,1323.0,44.845186,-62.4662922,2017-06-24,2017-12-12,HOBO-10817399,1.0,float,12.268,,
2017-11-08T01:15:00,Sober Island Pond-Sober Island,1323.0,44.845186,-62.4662922,2017-06-24,2017-12-12,HOBO-10817399,1.0,float,12.268,,
2017-11-08T01:30:00,Sober Island Pond-Sober Island,1323.0,44.845186,-62.4662922,2017-06-24,2017-12-12,HOBO-10817399,1.0,float,12.243,,
2017-11-08T01:45:00,Sober Island Pond-Sober Island,1323.0,44.845186,-62.4662922,2017-06-24,2017-12-12,HOBO-10817399,1.0,float,12.268,,
2017-11-08T02:00:00,Sober Island Pond-Sober Island,1323.0,44.845186,-62.4662922,2017-06-24,2017-12-12,HOBO-10817399,1.0,float,12.243,,
2017-11-08T02:15:00,Sober Island Pond-Sober Island,1323.0,44.845186,-62.4662922,2017-06-24,2017-12-12,HOBO-10817399,1.0,float,12.219,,
2017-11-08T02:30:00,Sober Island Pond-Sober Island,1323.0,44.845186,-62.4662922,2017-06-24,2017-12-12,HOBO-10817399,1.0,float,12.219,,
2017-11-08T02:45:00,Sober Island Pond-Sober Island,1323.0,44.845186,-62.4662922,2017-06-24,2017-12-12,HOBO-10817399,1.0,float,12.195,,
2017-11-08T03:00:00,Sober Island Pond-Sober Island,1323.0,44.845186,-62.4662922,2017-06-24,2017-12-12,HOBO-10817399,1.0,float,12.195,,
2017-11-08T03:15:00,Sober Island Pond-Sober Island,1323.0,44.845186,-62.4662922,2017-06-24,2017-12-12,HOBO-10817399,1.0,float,12.195,,
2017-11-08T03:30:00,Sober Island Pond-Sober Island,1323.0,44.845186,-62.4662922,2017-06-24,2017-12-12,HOBO-10817399,1.0,float,12.171,,
2017-11-08T03:45:00,Sober Island Pond-Sober Island,1323.0,44.845186,-62.4662922,2017-06-24,2017-12-12,HOBO-10817399,1.0,float,12.147,,
2017-11-08T04:00:00,Sober Island Pond-Sober Island,1323.0,44.845186,-62.4662922,2017-06-24,2017-12-12,HOBO-10817399,1.0,float,12.074,,
2017-11-08T04:15:00,Sober Island Pond-Sober Island,1323.0,44.845186,-62.4662922,2017-06-24,2017-12-12,HOBO-10817399,1.0,float,12.098,,
2017-11-08T04:30:00,Sober Island Pond-Sober Island,1323.0,44.845186,-62.4662922,2017-06-24,2017-12-12,HOBO-10817399,1.0,float,12.098,,
2017-11-08T04:45:00,Sober Island Pond-Sober Island,1323.0,44.845186,-62.4662922,2017-06-24,2017-12-12,HOBO-10817399,1.0,float,12.074,,
2017-11-08T05:00:00,Sober Island Pond-Sober Island,1323.0,44.845186,-62.4662922,2017-06-24,2017-12-12,HOBO-10817399,1.0,float,12.098,,
2017-11-08T05:15:00,Sober Island Pond-Sober Island,1323.0,44.845186,-62.4662922,2017-06-24,2017-12-12,HOBO-10817399,1.0,float,12.098,,
2017-11-08T05:30:00,Sober Island Pond-Sober Island,1323.0,44.845186,-62.4662922,2017-06-24,2017-12-12,HOBO-10817399,1.0,float,12.074,,
2017-11-08T05:45:00,Sober Island Pond-Sober Island,1323.0,44.845186,-62.4662922,2017-06-24,2017-12-12,HOBO-10817399,1.0,float,12.05,,
2017-11-08T06:00:00,Sober Island Pond-Sober Island,1323.0,44.845186,-62.4662922,2017-06-24,2017-12-12,HOBO-10817399,1.0,float,12.025,,
2017-11-08T06:15:00,Sober Island Pond-Sober Island,1323.0,44.845186,-62.4662922,2017-06-24,2017-12-12,HOBO-10817399,1.0,float,12.025,,
2017-11-08T06:30:00,Sober Island Pond-Sober Island,1323.0,44.845186,-62.4662922,2017-06-24,2017-12-12,HOBO-10817399,1.0,float,12.025,,
2017-11-08T06:45:00,Sober Island Pond-Sober Island,1323.0,44.845186,-62.4662922,2017-06-24,2017-12-12,HOBO-10817399,1.0,float,12.001,,
2017-11-08T07:00:00,Sober Island Pond-Sober Island,1323.0,44.845186,-62.4662922,2017-06-24,2017-12-12,HOBO-10817399,1.0,float,11.977,,
2017-11-08T07:15:00,Sober Island Pond-Sober Island,1323.0,44.845186,-62.4662922,2017-06-24,2017-12-12,HOBO-10817399,1.0,float,11.977,,
2017-11-08T07:30:00,Sober Island Pond-Sober Island,1323.0,44.845186,-62.4662922,2017-06-24,2017-12-12,HOBO-10817399,1.0,float,11.953,,
2017-11-08T07:45:00,Sober Island Pond-Sober Island,1323.0,44.845186,-62.4662922,2017-06-24,2017-12-12,HOBO-10817399,1.0,float,11.953,,
2017-11-08T08:00:00,Sober Island Pond-Sober Island,1323.0,44.845186,-62.4662922,2017-06-24,2017-12-12,HOBO-10817399,1.0,float,11.88,,
2017-11-08T08:15:00,Sober Island Pond-Sober Island,1323.0,44.845186,-62.4662922,2017-06-24,2017-12-12,HOBO-10817399,1.0,float,11.929,,
2017-11-08T08:30:00,Sober Island Pond-Sober Island,1323.0,44.845186,-62.4662922,2017-06-24,2017-12-12,HOBO-10817399,1.0,float,11.88,,
2017-11-08T08:45:00,Sober Island Pond-Sober Island,1323.0,44.845186,-62.4662922,2017-06-24,2017-12-12,HOBO-10817399,1.0,float,11.88,,
2017-11-08T09:00:00,Sober Island Pond-Sober Island,1323.0,44.845186,-62.4662922,2017-06-24,2017-12-12,HOBO-10817399,1.0,float,11.856,,
2017-11-08T09:15:00,Sober Island Pond-Sober Island,1323.0,44.845186,-62.4662922,2017-06-24,2017-12-12,HOBO-10817399,1.0,float,11.807,,
2017-11-08T09:30:00,Sober Island Pond-Sober Island,1323.0,44.845186,-62.4662922,2017-06-24,2017-12-12,HOBO-10817399,1.0,float,11.832,,
2017-11-08T09:45:00,Sober Island Pond-Sober Island,1323.0,44.845186,-62.4662922,2017-06-24,2017-12-12,HOBO-10817399,1.0,float,11.807,,
2017-11-08T10:00:00,Sober Island Pond-Sober Island,1323.0,44.845186,-62.4662922,2017-06-24,2017-12-12,HOBO-10817399,1.0,float,11.759,,
2017-11-08T10:15:00,Sober Island Pond-Sober Island,1323.0,44.845186,-62.4662922,2017-06-24,2017-12-12,HOBO-10817399,1.0,float,11.759,,
2017-11-08T10:30:00,Sober Island Pond-Sober Island,1323.0,44.845186,-62.4662922,2017-06-24,2017-12-12,HOBO-10817399,1.0,float,11.734,,
2017-11-08T10:45:00,Sober Island Pond-Sober Island,1323.0,44.845186,-62.4662922,2017-06-24,2017-12-12,HOBO-10817399,1.0,float,11.734,,
2017-11-08T11:00:00,Sober Island Pond-Sober Island,1323.0,44.845186,-62.4662922,2017-06-24,2017-12-12,HOBO-10817399,1.0,float,11.686,,
2017-11-08T11:15:00,Sober Island Pond-Sober Island,1323.0,44.845186,-62.4662922,2017-06-24,2017-12-12,HOBO-10817399,1.0,float,11.686,,
2017-11-08T11:30:00,Sober Island Pond-Sober Island,1323.0,44.845186,-62.4662922,2017-06-24,2017-12-12,HOBO-10817399,1.0,float,11.686,,
2017-11-08T11:45:00,Sober Island Pond-Sober Island,1323.0,44.845186,-62.4662922,2017-06-24,2017-12-12,HOBO-10817399,1.0,float,11.71,,
2017-11-08T12:00:00,Sober Island Pond-Sober Island,1323.0,44.845186,-62.4662922,2017-06-24,2017-12-12,HOBO-10817399,1.0,float,11.686,,
2017-11-08T12:15:00,Sober Island Pond-Sober Island,1323.0,44.845186,-62.4662922,2017-06-24,2017-12-12,HOBO-10817399,1.0,float,11.686,,
2017-11-08T12:30:00,Sober Island Pond-Sober Island,1323.0,44.845186,-62.4662922,2017-06-24,2017-12-12,HOBO-10817399,1.0,float,11.662,,
2017-11-08T12:45:00,Sober Island Pond-Sober Island,1323.0,44.845186,-62.4662922,2017-06-24,2017-12-12,HOBO-10817399,1.0,float,11.662,,
2017-11-08T13:00:00,Sober Island Pond-Sober Island,1323.0,44.845186,-62.4662922,2017-06-24,2017-12-12,HOBO-10817399,1.0,float,11.686,,
2017-11-08T13:15:00,Sober Island Pond-Sober Island,1323.0,44.845186,-62.4662922,2017-06-24,2017-12-12,HOBO-10817399,1.0,float,11.613,,
2017-11-08T13:30:00,Sober Island Pond-Sober Island,1323.0,44.845186,-62.4662922,2017-06-24,2017-12-12,HOBO-10817399,1.0,float,11.613,,
2017-11-08T13:45:00,Sober Island Pond-Sober Island,1323.0,44.845186,-62.4662922,2017-06-24,2017-12-12,HOBO-10817399,1.0,float,11.613,,
2017-11-08T14:00:00,Sober Island Pond-Sober Island,1323.0,44.845186,-62.4662922,2017-06-24,2017-12-12,HOBO-10817399,1.0,float,11.613,,
2017-11-08T14:15:00,Sober Island Pond-Sober Island,1323.0,44.845186,-62.4662922,2017-06-24,2017-12-12,HOBO-10817399,1.0,float,11.637,,
2017-11-08T14:30:00,Sober Island Pond-Sober Island,1323.0,44.845186,-62.4662922,2017-06-24,2017-12-12,HOBO-10817399,1.0,float,11.613,,
2017-11-08T14:45:00,Sober Island Pond-Sober Island,1323.0,44.845186,-62.4662922,2017-06-24,2017-12-12,HOBO-10817399,1.0,float,11.613,,
2017-11-08T15:00:00,Sober Island Pond-Sober Island,1323.0,44.845186,-62.4662922,2017-06-24,2017-12-12,HOBO-10817399,1.0,float,11.613,,
2017-11-08T15:15:00,Sober Island Pond-Sober Island,1323.0,44.845186,-62.4662922,2017-06-24,2017-12-12,HOBO-10817399,1.0,float,11.637,,
2017-11-08T15:30:00,Sober Island Pond-Sober Island,1323.0,44.845186,-62.4662922,2017-06-24,2017-12-12,HOBO-10817399,1.0,float,11.589,,
2017-11-08T15:45:00,Sober Island Pond-Sober Island,1323.0,44.845186,-62.4662922,2017-06-24,2017-12-12,HOBO-10817399,1.0,float,11.589,,
2017-11-08T16:00:00,Sober Island Pond-Sober Island,1323.0,44.845186,-62.4662922,2017-06-24,2017-12-12,HOBO-10817399,1.0,float,11.613,,
2017-11-08T16:15:00,Sober Island Pond-Sober Island,1323.0,44.845186,-62.4662922,2017-06-24,2017-12-12,HOBO-10817399,1.0,float,11.613,,
2017-11-08T16:30:00,Sober Island Pond-Sober Island,1323.0,44.845186,-62.4662922,2017-06-24,2017-12-12,HOBO-10817399,1.0,float,11.613,,
2017-11-08T16:45:00,Sober Island Pond-Sober Island,1323.0,44.845186,-62.4662922,2017-06-24,2017-12-12,HOBO-10817399,1.0,float,11.589,,
2017-11-08T17:00:00,Sober Island Pond-Sober Island,1323.0,44.845186,-62.4662922,2017-06-24,2017-12-12,HOBO-10817399,1.0,float,11.565,,
2017-11-08T17:15:00,Sober Island Pond-Sober Island,1323.0,44.845186,-62.4662922,2017-06-24,2017-12-12,HOBO-10817399,1.0,float,11.54,,
2017-11-08T17:30:00,Sober Island Pond-Sober Island,1323.0,44.845186,-62.4662922,2017-06-24,2017-12-12,HOBO-10817399,1.0,float,11.54,,
2017-11-08T17:45:00,Sober Island Pond-Sober Island,1323.0,44.845186,-62.4662922,2017-06-24,2017-12-12,HOBO-10817399,1.0,float,11.54,,
2017-11-08T18:00:00,Sober Island Pond-Sober Island,1323.0,44.845186,-62.4662922,2017-06-24,2017-12-12,HOBO-10817399,1.0,float,11.516,,
2017-11-08T18:15:00,Sober Island Pond-Sober Island,1323.0,44.845186,-62.4662922,2017-06-24,2017-12-12,HOBO-10817399,1.0,float,11.516,,
2017-11-08T18:30:00,Sober Island Pond-Sober Island,1323.0,44.845186,-62.4662922,2017-06-24,2017-12-12,HOBO-10817399,1.0,float,11.492,,
2017-11-08T18:45:00,Sober Island Pond-Sober Island,1323.0,44.845186,-62.4662922,2017-06-24,2017-12-12,HOBO-10817399,1.0,float,11.516,,
2017-11-08T19:00:00,Sober Island Pond-Sober Island,1323.0,44.845186,-62.4662922,2017-06-24,2017-12-12,HOBO-10817399,1.0,float,11.492,,
2017-11-08T19:15:00,Sober Island Pond-Sober Island,1323.0,44.845186,-62.4662922,2017-06-24,2017-12-12,HOBO-10817399,1.0,float,11.467,,
2017-11-08T19:30:00,Sober Island Pond-Sober Island,1323.0,44.845186,-62.4662922,2017-06-24,2017-12-12,HOBO-10817399,1.0,float,11.467,,
2017-11-08T19:45:00,Sober Island Pond-Sober Island,1323.0,44.845186,-62.4662922,2017-06-24,2017-12-12,HOBO-10817399,1.0,float,11.467,,
2017-11-08T20:00:00,Sober Island Pond-Sober Island,1323.0,44.845186,-62.4662922,2017-06-24,2017-12-12,HOBO-10817399,1.0,float,11.443,,
2017-11-08T20:15:00,Sober Island Pond-Sober Island,1323.0,44.845186,-62.4662922,2017-06-24,2017-12-12,HOBO-10817399,1.0,float,11.443,,
2017-11-08T20:30:00,Sober Island Pond-Sober Island,1323.0,44.845186,-62.4662922,2017-06-24,2017-12-12,HOBO-10817399,1.0,float,11.443,,
2017-11-08T20:45:00,Sober Island Pond-Sober Island,1323.0,44.845186,-62.4662922,2017-06-24,2017-12-12,HOBO-10817399,1.0,float,11.394,,
2017-11-08T21:00:00,Sober Island Pond-Sober Island,1323.0,44.845186,-62.4662922,2017-06-24,2017-12-12,HOBO-10817399,1.0,float,11.443,,
2017-11-08T21:15:00,Sober Island Pond-Sober Island,1323.0,44.845186,-62.4662922,2017-06-24,2017-12-12,HOBO-10817399,1.0,float,11.394,,
2017-11-08T21:30:00,Sober Island Pond-Sober Island,1323.0,44.845186,-62.4662922,2017-06-24,2017-12-12,HOBO-10817399,1.0,float,11.37,,
2017-11-08T21:45:00,Sober Island Pond-Sober Island,1323.0,44.845186,-62.4662922,2017-06-24,2017-12-12,HOBO-10817399,1.0,float,11.346,,
2017-11-08T22:00:00,Sober Island Pond-Sober Island,1323.0,44.845186,-62.4662922,2017-06-24,2017-12-12,HOBO-10817399,1.0,float,11.346,,
2017-11-08T22:15:00,Sober Island Pond-Sober Island,1323.0,44.845186,-62.4662922,2017-06-24,2017-12-12,HOBO-10817399,1.0,float,11.37,,
2017-11-08T22:30:00,Sober Island Pond-Sober Island,1323.0,44.845186,-62.4662922,2017-06-24,2017-12-12,HOBO-10817399,1.0,float,11.394,,
2017-11-08T22:45:00,Sober Island Pond-Sober Island,1323.0,44.845186,-62.4662922,2017-06-24,2017-12-12,HOBO-10817399,1.0,float,11.394,,
2017-11-08T23:00:00,Sober Island Pond-Sober Island,1323.0,44.845186,-62.4662922,2017-06-24,2017-12-12,HOBO-10817399,1.0,float,11.37,,
2017-11-08T23:15:00,Sober Island Pond-Sober Island,1323.0,44.845186,-62.4662922,2017-06-24,2017-12-12,HOBO-10817399,1.0,float,11.37,,
2017-11-08T23:30:00,Sober Island Pond-Sober Island,1323.0,44.845186,-62.4662922,2017-06-24,2017-12-12,HOBO-10817399,1.0,float,11.346,,
2017-11-08T23:45:00,Sober Island Pond-Sober Island,1323.0,44.845186,-62.4662922,2017-06-24,2017-12-12,HOBO-10817399,1.0,float,11.321,,
